Location: Staunton
(38.1490°N, 79.0720°W)
Time: 13:39:41
(UTC-04:00)

ISS - Pass Details

Date: 12 July 2019
Orbit: 409 x 418 km, 51.6° (Epoch: 20 July)

Event Time Altitude Azimuth Distance (km) Brightness Sun altitude
Exits shadow 01:50:48 15° 358° (N) 1,205 -0.7 -29.5°
Drops below altitude 10° 01:52:06 10° 19° (NNE) 1,480 -0.1 -29.4°
Sets 01:54:43 0° 41° (NE) 2,342 0.9 -29.4°
